Location: Godiavel Galaoual
(15.2485°N, 12.6604°W)
Time: 12:20:26
(UTC+00:00)

Cosmos 1634 Rocket - Pass Details

Date: 27 February 2020
Orbit: 959 x 993 km, 82.9° (Epoch: 04 April)

Event Time Altitude Azimuth Distance (km) Brightness Sun altitude
Rises 20:25:01 0° 176° (S) 3,676 7.0 -21.8°
Reaches altitude 10° 20:27:32 10° 174° (S) 2,733 6.3 -22.4°
Maximum altitude 20:33:45 67° 92° (E) 1,068 3.9 -23.9°
Drops below altitude 10° 20:40:00 10° 11° (NNE) 2,750 6.2 -25.4°
Sets 20:42:33 0° 9° (N) 3,700 6.9 -26.0°
